Shreveport Downtown, LA

1:16 PM CST on December 11, 2017 (GMT -0600)
Shreveport Downtown

Weather History for KDTN - January, 2013

Change the Weather History Date:

Thursday, January 24, 2013

  Actual Average (KBAD) Record (KBAD)
Temperature  
Mean Temperature 58 °F -  
Max Temperature 66 °F 54 °F 75 °F (2017)
Min Temperature 51 °F 36 °F 17 °F (2003)
Degree Days  
Heating Degree Days 6    
Growing Degree Days 8 (Base 50)    
Moisture  
Dew Point 56 °F    
Average Humidity 93    
Maximum Humidity 100    
Minimum Humidity 78    
Precipitation  
Precipitation 0.00 in - - ()
Sea Level Pressure  
Sea Level Pressure 30.20 in    
Wind  
Wind Speed 6 mph (SSE)    
Max Wind Speed 10 mph    
Max Gust Speed -    
Visibility 7 miles    
Events      
Averages and records for this station are not official NWS values.
T = Trace of Precipitation, MM = Missing Value Source: NWS Daily Summary

Daily Weather History Graph

Daily Weather History Graph

Search for Another Location

Airport or City:

Trip Planner

Search our weather history database for the weather conditions in past years. The results will help you decide how hot, cold, wet, or windy it might be!

Date:

Astronomy

Jan. 24, 2013 Rise Set
Actual Time 7:13 AM CST 5:40 PM CST
Civil Twilight 6:47 AM CST 6:07 PM CST
Nautical Twilight 6:17 AM CST 6:36 PM CST
Astronomical Twilight 5:48 AM CST 7:06 PM CST
Moon 3:45 PM CST (1/24) 5:09 AM CST (1/24)
Length of Visible Light 11h 19m
Length of Day
10h 26m
Waxing Gibbous, 94% of the Moon is Illuminated
Jan 24
Waxing Gibbous
Jan 26
Full
Feb 3
Last Quarter
Feb 10
New
Feb 17
First Quarter

Hourly Weather History & Observations

Time (CST) Temp. Dew Point Humidity Pressure Visibility Wind Dir Wind Speed Gust Speed Precip Events Conditions
12:53 AM 55.9 °F 51.1 °F 84% 30.22 in 10.0 mi SSE 3.5 mph - N/A   Clear
1:53 AM 54.0 °F 51.1 °F 90% 30.22 in 10.0 mi SSE 4.6 mph - N/A   Partly Cloudy
2:53 AM 52.0 °F 50.0 °F 93% 30.23 in 10.0 mi SSE 4.6 mph - N/A   Clear
3:53 AM 51.1 °F 51.1 °F 100% 30.21 in 8.0 mi South 4.6 mph - N/A   Clear
4:53 AM 53.1 °F 52.0 °F 96% 30.22 in 6.0 mi SE 4.6 mph - N/A   Clear
5:45 AM 51.8 °F 51.8 °F 100% 30.22 in 3.0 mi SE 5.8 mph - N/A   Partly Cloudy
5:53 AM 52.0 °F 52.0 °F 100% 30.23 in 3.0 mi SE 4.6 mph - N/A   Scattered Clouds
6:04 AM 51.8 °F 51.8 °F 100% 30.23 in 3.0 mi SE 5.8 mph - N/A   Mostly Cloudy
6:53 AM 54.0 °F 54.0 °F 100% 30.23 in 3.0 mi SE 5.8 mph - N/A   Overcast
7:20 AM 53.6 °F 53.6 °F 100% 30.23 in 2.5 mi SE 5.8 mph - N/A   Overcast
7:33 AM 55.4 °F 55.4 °F 100% 30.23 in 1.2 mi SSE 5.8 mph - N/A   Overcast
7:53 AM 55.0 °F 55.0 °F 100% 30.24 in 1.2 mi SSE 4.6 mph - N/A   Overcast
8:35 AM 57.2 °F 57.2 °F 100% 30.25 in 2.5 mi South 6.9 mph - N/A   Overcast
8:53 AM 57.9 °F 57.9 °F 100% 30.25 in 2.0 mi South 9.2 mph - N/A   Overcast
9:02 AM 57.2 °F 57.2 °F 100% 30.26 in 1.8 mi South 8.1 mph - N/A   Overcast
9:13 AM 57.2 °F 57.2 °F 100% 30.26 in 2.0 mi South 8.1 mph - N/A   Overcast
9:37 AM 59.0 °F 59.0 °F 100% 30.27 in 3.0 mi SSW 6.9 mph - N/A   Overcast
9:53 AM 60.1 °F 59.0 °F 96% 30.26 in 4.0 mi South 5.8 mph - N/A   Overcast
10:53 AM 62.1 °F 60.1 °F 93% 30.25 in 9.0 mi South 6.9 mph - N/A   Overcast
11:38 AM 64.4 °F 60.8 °F 88% 30.22 in 10.0 mi SSW 10.4 mph - N/A   Overcast
11:53 AM 64.9 °F 60.1 °F 84% 30.21 in 10.0 mi SW 10.4 mph - N/A   Overcast
12:24 PM 66.2 °F 60.8 °F 83% 30.20 in 10.0 mi SW 9.2 mph - N/A   Overcast
12:53 PM 66.0 °F 59.0 °F 78% 30.20 in 10.0 mi SW 8.1 mph - N/A   Overcast
1:53 PM 66.0 °F 59.0 °F 78% 30.18 in 10.0 mi South 5.8 mph - N/A   Overcast
2:53 PM 66.0 °F 59.0 °F 78% 30.16 in 10.0 mi South 8.1 mph - N/A   Overcast
3:53 PM 66.0 °F 59.0 °F 78% 30.15 in 10.0 mi South 5.8 mph - N/A   Overcast
4:53 PM 66.0 °F 59.0 °F 78% 30.15 in 10.0 mi SE 4.6 mph - N/A   Overcast
5:27 PM 64.4 °F 60.8 °F 88% 30.16 in 10.0 mi SE 6.9 mph - N/A   Overcast
5:53 PM 63.0 °F 60.1 °F 90% 30.16 in 10.0 mi East 4.6 mph - N/A   Overcast
6:53 PM 62.1 °F 59.0 °F 90% 30.16 in 10.0 mi East 8.1 mph - N/A   Overcast
7:49 PM 59.0 °F 57.2 °F 94% 30.16 in 10.0 mi ENE 4.6 mph - N/A   Overcast
7:53 PM 59.0 °F 57.0 °F 93% 30.16 in 10.0 mi ENE 3.5 mph - N/A   Overcast
8:13 PM 57.2 °F 55.4 °F 94% 30.15 in 10.0 mi NE 4.6 mph - N/A   Overcast
8:53 PM 57.0 °F 55.0 °F 93% 30.14 in 10.0 mi ENE 3.5 mph - N/A   Overcast
9:19 PM 55.4 °F 55.4 °F 100% 30.15 in 9.0 mi ENE 6.9 mph - N/A   Overcast
9:53 PM 55.0 °F 54.0 °F 96% 30.15 in 6.0 mi ENE 5.8 mph - N/A   Overcast
10:53 PM 54.0 °F 54.0 °F 100% 30.14 in 4.0 mi East 3.5 mph - N/A   Overcast
11:53 PM 55.9 °F 54.0 °F 93% 30.14 in 5.0 mi East 3.5 mph - N/A   Overcast